Location: Marsån
(66.4167°N, 22.2833°E)
Time: 09:40:07
(UTC+00:00)

Cosmos 1850 Rocket - Pass Details

Date: 24 February 2024
Orbit: 752 x 784 km, 74.0° (Epoch: 15 April)

Event Time Altitude Azimuth Distance (km) Brightness Sun altitude
Rises 19:28:19 0° 239° (WSW) 3,222 7.5 -24.2°
Reaches altitude 10° 19:30:43 10° 243° (WSW) 2,304 6.8 -24.4°
Maximum altitude 19:35:54 61° 324° (NW) 874 4.4 -24.8°
Drops below altitude 10° 19:41:09 10° 45° (NE) 2,333 6.4 -25.2°
Enters shadow 19:42:48 - 48° (NE) 2,961 6.9 -25.3°
